Regional Weather Roundup
Issued by NWS

Home | Current Version | Previous Version | Text Only | Print | Product List | Glossary On
Versions: 1 2 3 4 5 6 7 8 9 10 11 12 13 14 15 16 17 18 19 20 21 22 23 24 25 26 27 28 29 30 31 32 33 34 35 36 37 38 39 40 41 42 43 44 45 46 47 48 49 50
000
ASUS43 KDTX 301101
RWRMI
MICHIGAN HOURLY REGIONAL WEATHER ROUNDUP
NATIONAL WEATHER SERVICE DETROIT/PONTIAC MI
700 AM EDT SAT MAY 30 2015

NOTE: "FAIR" INDICATES FEW OR NO CLOUDS BELOW 12,000 FEET WITH NO
SIGNIFICANT WEATHER AND/OR OBSTRUCTION TO VISIBILITY.

MIZ047>049-052>055-059>063-066>070-074>076-081>083-301200-
SOUTHEAST LOWER MICHIGAN

CITY           SKY/WX    TMP DP  RH WIND       PRES   REMARKS
ADRIAN         CLEAR     69  64  84 SW7       30.00R
ALMA           PTCLDY    68  66  94 SW6       29.94R
ANN ARBOR      MOCLDY    70  64  81 SW7       29.99R
BAD AXE        CLOUDY    69  65  88 SW10      29.93R
CARO           CLOUDY    68  67  94 SW5       29.94R
DETROIT CITY   PTCLDY    71  64  78 SW12      29.98R
DETROIT        MOCLDY    73  65  75 MISG      29.99R
FLINT          MOCLDY    72  65  78 SW6       29.96R
GROSSE ILE     MOCLDY    72  66  83 S9        29.98R
HILLSDALE      PTCLDY    69  67  94 S5        30.00R
HOWELL         PTCLDY    69  65  85 SW5       29.97R

CITY           SKY/WX    TMP DP  RH WIND       PRES   REMARKS
JACKSON        MOCLDY    70  65  84 SW6       29.98R
LAMBERTVILLE   MOCLDY    70  64  83 SW8       30.01R
LANSING        MOCLDY    69  65  86 SW9       29.97R
LAPEER         MOCLDY    70  63  78 SW6       29.96R
MASON          MOCLDY    69  63  81 SW5       29.97R
MONROE         MOCLDY    72  64  78 SW7       29.99R
MT. CLEMENS    CLEAR     71  65  82 SW9       29.95R
PONTIAC        MOCLDY    70  64  81 SW10      29.97R
PORT HOPE        N/A     69  66  90 VRB6      29.90R
PORT HURON     MOCLDY    68  64  88 S7        29.97R
TRI CITIES     MOCLDY    70  66  87 SW8       29.93R
MIDLAND        FAIR      68  66  93 W5        29.92R
TROY           CLEAR     72  65  80 SW9       29.99R
SAGINAW HB     MOCLDY    70  70 100 SW10      29.93R
$$
MIZ043>046-050>051-056>058-064>065-071>073-077>080-301200-
SOUTHWEST LOWER MICHIGAN

CITY           SKY/WX    TMP DP  RH WIND       PRES   REMARKS
BATTLE CREEK   CLOUDY    69  65  86 SW9       29.98R
BENTON HARBOR  CLOUDY    68  65  90 SW10      29.96R
BIG RAPIDS     CLOUDY    64  61  90 CALM      29.94R
COLDWATER      MOCLDY    69  64  85 SW6       29.99R HAZE
FREMONT        MOCLDY    62  61  97 CALM      29.94R FOG
HOLLAND        MOCLDY    61  59  93 SW6       29.96R FOG
GRAND RAPIDS   CLOUDY    68  65  90 SW6       29.95R
IONIA          MOCLDY    68  66  92 W9        29.95R
KALAMAZOO      CLOUDY    69  65  86 S8        29.97R
LUDINGTON      RAIN      56  54  92 N6        29.96R
MARSHALL       CLOUDY    71  64  79 SW6       29.97S
MOUNT PLEASANT CLOUDY    67  65  93 SW7       29.93R
MUSKEGON       CLOUDY    58  56  93 S5        29.95R FOG
SOUTH HAVEN    CLOUDY    68  64  87 SW7       29.96S
$$
MIZ016>042-301200-
NORTHERN LOWER MICHIGAN

CITY           SKY/WX    TMP DP  RH WIND       PRES   REMARKS
ALPENA         LGT RAIN  63  61  93 CALM      29.91S
BEAVER ISLAND  LGT RAIN  47  47  97 NW3       29.99R
BELLAIRE       LGT RAIN  55  54  94 CALM      29.97R
CADILLAC       CLOUDY    58  57  96 N8        29.96R
CHARLEVOIX     LGT RAIN  49  49 100 NW7       30.00R
FRANKFORT      LGT RAIN  55  49  82 N8        29.98R
GAYLORD        LGT RAIN  57  57 100 NW7       29.95R
GRAYLING       DRIZZLE   59  58  96 W7        29.96R
HARBOR SPRINGS RAIN      48  48 100 SW3       29.96R
HOUGHTON LAKE  LGT RAIN  60  58  92 NW8       29.95R
MANISTEE       CLOUDY    55  54  94 N5        29.97R
OSCODA         CLOUDY    68  68  98 SW5       29.90R FOG
PELLSTON       LGT RAIN  53  51  93 NW13      29.96R
ROGERS CITY    RAIN      59  58  96 NW6       29.93R
TRAVERSE CITY  LGT RAIN  53  51  93 VRB6      29.97R
$$
MIZ007>008-015-301200-
EASTERN UPPER MICHIGAN

CITY           SKY/WX    TMP DP  RH WIND       PRES   REMARKS
KINROSS        CLOUDY    46  46 100 NW15G21   29.94R
MACKINAC ISLAN LGT RAIN  51  51 100 NW8       29.95R
NEWBERRY       CLOUDY    44  44  98 NW9G16    29.99R
S. S. MARIE    LGT RAIN  45  43  93 W12       29.93R
$$
MIZ004>006-011>014-085-301200-
CENTRAL UPPER MICHIGAN

CITY           SKY/WX    TMP DP  RH WIND       PRES   REMARKS
MANISTIQUE     CLOUDY    45  43  93 N17G25    30.00R
ESCANABA       CLOUDY    48  43  81 N9G16     30.02R
MENOMINEE      CLOUDY    52  46  82 N7        30.02R
SAWYER-GWINN   PTCLDY    45  41  87 N16G22    30.06R
$$
MIZ001>003-009>011-084-301200-
WESTERN UPPER MICHIGAN

CITY           SKY/WX    TMP DP  RH WIND       PRES   REMARKS
IRON MOUNTAIN  CLOUDY    50  46  86 N12       30.05R
HOUGHTON       CLOUDY    45  41  86 N15G26    30.11R
COPPER HARBOR    N/A     43  39  86 N8        30.12R
IRONWOOD       CLOUDY    45  43  93 NE3       30.12R
$$

ABBREVIATIONS USED IN REMARKS
   TC - TEMPERATURE IN CELSIUS
  WCI - WIND CHILL INDEX
   HX - HEAT INDEX
  VSB - VISIBILITY



USA.gov is the U.S. government's official web portal to all federal, state and local government web resources and services.